• In Deutschland
  • Länderverzeichnis
  • Für 7 Tage
  • Wassertemperatur
  • Satellitenkarten
  • Wetterkarte
  • Widgets
  • user-avatar
    Anmelden

    Stündliche Wetter Nakhimove

    Heute, 21 Mai, Montag

    Zeit Temperatur Niederschläge Wind Luftdruck Luftfeuchtigkeit
    00:00 +16°C° 0 mm 2 m/S 759 mmHg 86%
    01:00 +16°C° 0 mm 2 m/S 759 mmHg 88%
    02:00 +14°C° 0 mm 3 m/S 759 mmHg 92%
    03:00 +14°C° 0 mm 3 m/S 759 mmHg 93%
    04:00 +14°C° 0 mm 3 m/S 759 mmHg 93%
    05:00 +14°C° 0 mm 3 m/S 759 mmHg 93%
    06:00 +17°C° 0 mm 3 m/S 760 mmHg 86%
    07:00 +18°C° 0 mm 3 m/S 760 mmHg 80%
    08:00 +20°C° 0 mm 3 m/S 760 mmHg 73%
    09:00 +21°C° 0,1 mm 3 m/S 760 mmHg 68%
    10:00 +22°C° 0,1 mm 3 m/S 761 mmHg 64%
    11:00 +24°C° 0,1 mm 3 m/S 761 mmHg 59%
    12:00 +24°C° 0,2 mm 3 m/S 761 mmHg 57%
    13:00 +25°C° 0,2 mm 3 m/S 761 mmHg 55%
    14:00 +25°C° 0,2 mm 2 m/S 761 mmHg 53%
    15:00 +25°C° 0,1 mm 2 m/S 761 mmHg 53%
    16:00 +25°C° 0,1 mm 2 m/S 761 mmHg 53%
    17:00 +24°C° 0,1 mm 2 m/S 761 mmHg 54%
    18:00 +23°C° 0 mm 2 m/S 761 mmHg 58%
    19:00 +20°C° 0 mm 2 m/S 761 mmHg 63%
    20:00 +19°C° 0 mm 1 m/S 761 mmHg 68%
    21:00 +18°C° 0 mm 1 m/S 761 mmHg 69%
    22:00 +18°C° 0 mm 1 m/S 761 mmHg 70%
    23:00 +16°C° 0 mm 1 m/S 761 mmHg 72%

    Morgen, 22 Mai, Dienstag

    Zeit Temperatur Niederschläge Wind Luftdruck Luftfeuchtigkeit
    00:00 +16°C° 0 mm 2 m/S 761 mmHg 73%
    01:00 +16°C° 0 mm 2 m/S 761 mmHg 74%
    02:00 +16°C° 0 mm 2 m/S 761 mmHg 75%
    03:00 +16°C° 0 mm 2 m/S 761 mmHg 77%
    04:00 +16°C° 0 mm 2 m/S 762 mmHg 79%
    05:00 +16°C° 0 mm 2 m/S 762 mmHg 80%
    06:00 +18°C° 0 mm 3 m/S 762 mmHg 76%
    07:00 +20°C° 0 mm 3 m/S 762 mmHg 71%
    08:00 +22°C° 0 mm 4 m/S 762 mmHg 66%
    09:00 +22°C° 0 mm 4 m/S 762 mmHg 63%
    10:00 +23°C° 0 mm 4 m/S 763 mmHg 59%
    11:00 +25°C° 0 mm 4 m/S 763 mmHg 56%
    12:00 +26°C° 0 mm 4 m/S 762 mmHg 54%
    13:00 +26°C° 0 mm 4 m/S 762 mmHg 53%
    14:00 +26°C° 0 mm 4 m/S 762 mmHg 51%
    15:00 +26°C° 0 mm 4 m/S 762 mmHg 52%
    16:00 +25°C° 0 mm 3 m/S 762 mmHg 53%
    17:00 +25°C° 0 mm 3 m/S 762 mmHg 53%
    18:00 +23°C° 0 mm 2 m/S 762 mmHg 58%
    19:00 +20°C° 0 mm 2 m/S 762 mmHg 63%
    20:00 +19°C° 0 mm 1 m/S 762 mmHg 68%
    21:00 +18°C° 0 mm 1 m/S 762 mmHg 68%
    22:00 +18°C° 0 mm 1 m/S 762 mmHg 68%
    23:00 +16°C° 0 mm 1 m/S 762 mmHg 67%

    übermorgen, 23 Mai, Mittwoch

    Zeit Temperatur Niederschläge Wind Luftdruck Luftfeuchtigkeit
    00:00 +16°C° 0 mm 2 m/S 762 mmHg 68%
    01:00 +16°C° 0 mm 2 m/S 762 mmHg 69%
    02:00 +16°C° 0 mm 2 m/S 762 mmHg 69%
    03:00 +16°C° 0 mm 2 m/S 762 mmHg 71%
    04:00 +16°C° 0 mm 2 m/S 762 mmHg 72%
    05:00 +16°C° 0 mm 2 m/S 762 mmHg 74%
    06:00 +18°C° 0 mm 2 m/S 762 mmHg 69%
    07:00 +20°C° 0 mm 3 m/S 762 mmHg 65%
    08:00 +24°C° 0 mm 3 m/S 762 mmHg 60%
    09:00 +25°C° 0 mm 3 m/S 762 mmHg 58%
    10:00 +26°C° 0 mm 3 m/S 761 mmHg 56%
    11:00 +28°C° 0 mm 4 m/S 761 mmHg 53%
    12:00 +28°C° 0,2 mm 4 m/S 761 mmHg 53%
    13:00 +28°C° 0,2 mm 4 m/S 761 mmHg 53%
    14:00 +29°C° 0,2 mm 4 m/S 760 mmHg 53%
    15:00 +28°C° 0,1 mm 4 m/S 760 mmHg 55%
    16:00 +28°C° 0,1 mm 3 m/S 760 mmHg 57%
    17:00 +27°C° 0,1 mm 3 m/S 759 mmHg 58%
    18:00 +25°C° 0 mm 2 m/S 759 mmHg 64%
    19:00 +24°C° 0 mm 2 m/S 759 mmHg 70%
    20:00 +22°C° 0 mm 1 m/S 759 mmHg 75%
    21:00 +20°C° 0 mm 2 m/S 759 mmHg 76%
    22:00 +20°C° 0 mm 2 m/S 759 mmHg 77%
    23:00 +20°C° 0 mm 2 m/S 758 mmHg 78%

    24 Mai, Donnerstag

    Zeit Temperatur Niederschläge Wind Luftdruck Luftfeuchtigkeit
    00:00 +19°C° 0 mm 2 m/S 758 mmHg 80%
    01:00 +19°C° 0 mm 2 m/S 758 mmHg 81%
    02:00 +19°C° 0 mm 3 m/S 757 mmHg 83%
    03:00 +19°C° 0,1 mm 3 m/S 757 mmHg 84%
    04:00 +19°C° 0,1 mm 3 m/S 757 mmHg 85%
    05:00 +19°C° 0,1 mm 3 m/S 757 mmHg 86%
    06:00 +20°C° 0,1 mm 3 m/S 757 mmHg 82%
    07:00 +22°C° 0,1 mm 3 m/S 757 mmHg 77%
    08:00 +24°C° 0,1 mm 3 m/S 757 mmHg 73%
    09:00 +25°C° 0,1 mm 3 m/S 756 mmHg 70%
    10:00 +25°C° 0,1 mm 3 m/S 756 mmHg 68%
    11:00 +26°C° 0,1 mm 3 m/S 756 mmHg 65%
    12:00 +26°C° 0,2 mm 3 m/S 756 mmHg 62%
    13:00 +27°C° 0,2 mm 3 m/S 755 mmHg 60%
    14:00 +27°C° 0,2 mm 3 m/S 755 mmHg 58%
    15:00 +27°C° 0,3 mm 3 m/S 755 mmHg 59%
    16:00 +27°C° 0,3 mm 3 m/S 755 mmHg 59%
    17:00 +26°C° 0,3 mm 3 m/S 754 mmHg 60%
    18:00 +24°C° 0,2 mm 3 m/S 754 mmHg 67%
    19:00 +22°C° 0,2 mm 3 m/S 754 mmHg 74%
    20:00 +20°C° 0,2 mm 2 m/S 754 mmHg 81%
    21:00 +19°C° 0 mm 2 m/S 754 mmHg 83%
    22:00 +18°C° 0 mm 2 m/S 754 mmHg 85%
    23:00 +19°C° 0 mm 1 m/S 754 mmHg 87%

    25 Mai, Freitag

    Zeit Temperatur Niederschläge Wind Luftdruck Luftfeuchtigkeit
    00:00 +18°C° 0 mm 2 m/S 754 mmHg 89%
    01:00 +18°C° 0 mm 2 m/S 753 mmHg 90%
    02:00 +18°C° 0 mm 2 m/S 753 mmHg 91%
    03:00 +18°C° 0 mm 3 m/S 753 mmHg 91%
    04:00 +18°C° 0 mm 3 m/S 753 mmHg 90%
    05:00 +18°C° 0 mm 3 m/S 753 mmHg 90%
    06:00 +19°C° 0,3 mm 4 m/S 753 mmHg 83%
    07:00 +21°C° 0,3 mm 5 m/S 753 mmHg 77%
    08:00 +22°C° 0,3 mm 6 m/S 754 mmHg 70%
    09:00 +23°C° 0,4 mm 6 m/S 754 mmHg 66%
    10:00 +24°C° 0,4 mm 6 m/S 754 mmHg 61%
    11:00 +26°C° 0,4 mm 7 m/S 754 mmHg 57%
    12:00 +26°C° 0 mm 6 m/S 754 mmHg 54%
    13:00 +26°C° 0 mm 6 m/S 753 mmHg 51%
    14:00 +26°C° 0 mm 5 m/S 753 mmHg 49%
    15:00 +25°C° 0 mm 5 m/S 753 mmHg 50%
    16:00 +25°C° 0 mm 4 m/S 753 mmHg 51%
    17:00 +23°C° 0 mm 4 m/S 753 mmHg 53%
    18:00 +22°C° 0 mm 3 m/S 753 mmHg 57%
    19:00 +20°C° 0 mm 3 m/S 753 mmHg 62%
    20:00 +19°C° 0 mm 3 m/S 754 mmHg 67%
    21:00 +19°C° 0,3 mm 4 m/S 754 mmHg 71%
    22:00 +19°C° 0,3 mm 5 m/S 754 mmHg 75%
    23:00 +18°C° 0,3 mm 7 m/S 754 mmHg 79%

    26 Mai, Samstag

    Zeit Temperatur Niederschläge Wind Luftdruck Luftfeuchtigkeit
    00:00 +18°C° 0,2 mm 8 m/S 754 mmHg 81%
    01:00 +17°C° 0,2 mm 8 m/S 755 mmHg 83%
    02:00 +17°C° 0,2 mm 9 m/S 755 mmHg 85%
    03:00 +16°C° 0,1 mm 9 m/S 756 mmHg 84%
    04:00 +16°C° 0,1 mm 9 m/S 756 mmHg 82%
    05:00 +15°C° 0,1 mm 9 m/S 757 mmHg 80%
    06:00 +15°C° 0 mm 9 m/S 757 mmHg 75%
    07:00 +16°C° 0 mm 9 m/S 758 mmHg 70%
    08:00 +16°C° 0 mm 10 m/S 758 mmHg 65%
    09:00 +17°C° 0 mm 10 m/S 759 mmHg 61%
    10:00 +17°C° 0 mm 10 m/S 759 mmHg 57%
    11:00 +18°C° 0 mm 10 m/S 760 mmHg 53%
    12:00 +18°C° 0 mm 10 m/S 760 mmHg 52%
    13:00 +18°C° 0 mm 10 m/S 760 mmHg 51%
    14:00 +18°C° 0 mm 10 m/S 761 mmHg 49%
    15:00 +17°C° 0 mm 9 m/S 761 mmHg 50%
    16:00 +17°C° 0 mm 9 m/S 762 mmHg 51%
    17:00 +17°C° 0 mm 9 m/S 762 mmHg 52%
    18:00 +16°C° 0 mm 8 m/S 762 mmHg 56%
    19:00 +15°C° 0 mm 7 m/S 763 mmHg 59%
    20:00 +14°C° 0 mm 7 m/S 764 mmHg 62%
    21:00 +12°C° 0 mm 7 m/S 764 mmHg 64%
    22:00 +12°C° 0 mm 7 m/S 764 mmHg 65%
    23:00 +11°C° 0 mm 7 m/S 765 mmHg 67%
    Mehr zeigen